,,,PA_Meas_PMT16A,,PR_Meas_QMR101_102,,RH_Meas_QMH101,,SR_Meas_QMS101,,TA_Meas_QMH101,,GenWind,,GenWind,
date,time,status,PA,status,PR,status,RH,status,SR,status,TA,status,DirAvg,status,SpdAvg,
2010-06-19, 00:00:05,VALID,1001.69,VALID,0,VALID,91.8683,VALID,0,VALID,24.9326,VALID,51,VALID,0,
2010-06-19, 00:01:05,VALID,1001.7,VALID,0,VALID,91.9445,VALID,0,VALID,24.9112,VALID,51,VALID,0,
2010-06-19, 00:02:05,VALID,1001.7,VALID,0,VALID,91.9827,VALID,0,VALID,24.9131,VALID,51,VALID,0,
2010-06-19, 00:03:05,VALID,1001.71,VALID,0,VALID,91.9827,VALID,0,VALID,24.9131,VALID,51,VALID,0,
2010-06-19, 00:04:05,VALID,1001.73,VALID,0,VALID,91.9751,VALID,0,VALID,24.8703,VALID,51,VALID,0,
2010-06-19, 00:05:05,VALID,1001.73,VALID,0,VALID,91.8683,VALID,0,VALID,24.8703,VALID,51,VALID,0.480859,
2010-06-19, 00:06:05,VALID,1001.75,VALID,0,VALID,91.6546,VALID,0,VALID,24.8703,VALID,59,VALID,0.470313,
2010-06-19, 00:07:05,VALID,1001.74,VALID,0,VALID,91.5478,VALID,0,VALID,24.8703,VALID,72,VALID,0.289453,
2010-06-19, 00:08:05,VALID,1001.76,VALID,0,VALID,91.4944,VALID,0,VALID,24.8898,VALID,72,VALID,0.356641,
2010-06-19, 00:09:05,VALID,1001.74,VALID,0,VALID,91.4181,VALID,0,VALID,24.9093,VALID,72,VALID,0.541797,
2010-06-19, 00:10:05,VALID,1001.75,VALID,0,VALID,91.3876,VALID,0,VALID,24.9289,VALID,72,VALID,0.376563,
2010-06-19, 00:11:05,VALID,1001.74,VALID,0,VALID,91.3571,VALID,0,VALID,24.9289,VALID,72,VALID,0.209375,
2010-06-19, 00:12:05,VALID,1001.77,VALID,0,VALID,91.3952,VALID,0,VALID,24.9484,VALID,72,VALID,0.221094,
2010-06-19, 00:13:05,VALID,1001.78,VALID,0,VALID,91.3876,VALID,0.112286,VALID,24.9465,VALID,72,VALID,0.419531,
2010-06-19, 00:14:05,VALID,1001.77,VALID,0,VALID,91.3723,VALID,0,VALID,24.9679,VALID,88,VALID,0.663672,
2010-06-19, 00:15:05,VALID,1001.74,VALID,0,VALID,91.2503,VALID,0,VALID,24.9679,VALID,101,VALID,0.880469,
2010-06-19, 00:16:05,VALID,1001.71,VALID,0,VALID,91.1816,VALID,0.112286,VALID,24.9874,VALID,107,VALID,0.817187,
2010-06-19, 00:17:05,VALID,1001.68,VALID,0,VALID,91.0671,VALID,0,VALID,25.0069,VALID,124,VALID,0.868359,
2010-06-19, 00:18:05,VALID,1001.67,VALID,0,VALID,91.1282,VALID,0,VALID,25.0069,VALID,124,VALID,0.465625,
2010-06-19, 00:19:05,VALID,1001.63,VALID,0,VALID,91.09,VALID,0,VALID,24.9874,VALID,124,VALID,0.646875,
2010-06-19, 00:20:05,VALID,1001.59,VALID,0,VALID,91.0519,VALID,0,VALID,25.0088,VALID,124,VALID,0.6375,
2010-06-19, 00:21:05,VALID,1001.55,VALID,0,VALID,90.9603,VALID,0,VALID,25.0088,VALID,124,VALID,0.491016,
2010-06-19, 00:22:05,VALID,1001.51,VALID,0,VALID,90.9222,VALID,0,VALID,25.0088,VALID,124,VALID,0.241406,
2010-06-19, 00:23:05,VALID,1001.49,VALID,0,VALID,90.9069,VALID,0,VALID,25.0107,VALID,124,VALID,0,
2010-06-19, 00:24:05,VALID,1001.45,VALID,0,VALID,90.8383,VALID,0,VALID,24.9893,VALID,124,VALID,0,
2010-06-19, 00:25:05,VALID,1001.39,VALID,0,VALID,91.0595,VALID,0,VALID,25.0107,VALID,124,VALID,0.533984,
2010-06-19, 00:26:05,VALID,1001.33,VALID,0,VALID,91.1206,VALID,0,VALID,25.0088,VALID,124,VALID,0.450781,
2010-06-19, 00:27:05,VALID,1001.27,VALID,0,VALID,91.2426,VALID,0,VALID,25.0088,VALID,124,VALID,0.325,
2010-06-19, 00:28:05,VALID,1001.25,VALID,0,VALID,91.3037,VALID,0,VALID,25.0088,VALID,124,VALID,0.418359,
2010-06-19, 00:29:05,VALID,1001.21,VALID,0,VALID,91.3494,VALID,0,VALID,24.9893,VALID,124,VALID,0.535156,
2010-06-19, 00:30:05,VALID,1001.22,VALID,0,VALID,91.4028,VALID,0,VALID,24.9893,VALID,124,VALID,0.230469,
2010-06-19, 00:31:05,VALID,1001.27,VALID,0,VALID,91.5402,VALID,0,VALID,24.9893,VALID,124,VALID,0.0304688,
2010-06-19, 00:32:05,VALID,1001.26,VALID,0,VALID,91.5173,VALID,0,VALID,24.9698,VALID,124,VALID,0,
2010-06-19, 00:33:05,VALID,1001.32,VALID,0,VALID,91.5554,VALID,0,VALID,24.9503,VALID,124,VALID,0.375,
2010-06-19, 00:34:05,VALID,1001.34,VALID,0,VALID,91.5173,VALID,0,VALID,24.9308,VALID,124,VALID,0.552734,
2010-06-19, 00:35:05,VALID,1001.35,VALID,0,VALID,91.5478,VALID,0,VALID,24.9308,VALID,124,VALID,0.442187,
2010-06-19, 00:36:05,VALID,1001.35,VALID,0,VALID,91.6088,VALID,0,VALID,24.9131,VALID,124,VALID,0.545703,
2010-06-19, 00:37:05,VALID,1001.34,VALID,0,VALID,91.4639,VALID,0,VALID,24.8917,VALID,100,VALID,0.638672,
2010-06-19, 00:38:05,VALID,1001.34,VALID,0,VALID,91.6317,VALID,0,VALID,24.9112,VALID,79,VALID,0.978125,
2010-06-19, 00:39:05,VALID,1001.25,VALID,0,VALID,91.914,VALID,0,VALID,24.9308,VALID,78,VALID,0.852344,
2010-06-19, 00:40:05,VALID,1001.28,VALID,0,VALID,91.914,VALID,0,VALID,24.9308,VALID,78,VALID,0.727734,
2010-06-19, 00:41:05,VALID,1001.21,VALID,0,VALID,91.8072,VALID,0,VALID,24.9112,VALID,78,VALID,0.552344,
2010-06-19, 00:42:05,VALID,1001.2,VALID,0,VALID,91.7767,VALID,0,VALID,24.9112,VALID,78,VALID,0.267188,
2010-06-19, 00:43:05,VALID,1001.18,VALID,0,VALID,91.7309,VALID,0,VALID,24.8917,VALID,78,VALID,0.374219,
2010-06-19, 00:44:05,VALID,1001.1,VALID,0,VALID,91.6699,VALID,0,VALID,24.8917,VALID,78,VALID,0.197266,
2010-06-19, 00:45:05,VALID,1001.09,VALID,0,VALID,91.6012,VALID,0,VALID,24.8917,VALID,78,VALID,0.0726563,
2010-06-19, 00:46:05,VALID,1001.08,VALID,0,VALID,91.5936,VALID,0,VALID,24.8527,VALID,78,VALID,0,
2010-06-19, 00:47:05,VALID,1001.1,VALID,0,VALID,91.6165,VALID,0,VALID,24.8332,VALID,78,VALID,0,
2010-06-19, 00:48:05,VALID,1001.11,VALID,0,VALID,91.708,VALID,0,VALID,24.8527,VALID,78,VALID,0,
2010-06-19, 00:49:05,VALID,1001.1,VALID,0,VALID,91.7462,VALID,0,VALID,24.8136,VALID,78,VALID,0,
2010-06-19, 00:50:05,VALID,1001.09,VALID,0,VALID,91.7538,VALID,0,VALID,24.8136,VALID,78,VALID,0,
2010-06-19, 00:51:05,VALID,1001.08,VALID,0,VALID,91.7157,VALID,0,VALID,24.8136,VALID,78,VALID,0.0015625,
2010-06-19, 00:52:05,VALID,1001.06,VALID,0,VALID,91.6546,VALID,0,VALID,24.7941,VALID,78,VALID,0.354688,
2010-06-19, 00:53:05,VALID,1001.01,VALID,0,VALID,91.6775,VALID,0,VALID,24.7941,VALID,78,VALID,0.362891,
2010-06-19, 00:54:05,VALID,1001,VALID,0,VALID,91.647,VALID,0,VALID,24.8136,VALID,78,VALID,0.425391,
2010-06-19, 00:55:05,VALID,1000.94,VALID,0,VALID,91.4486,VALID,0,VALID,24.8136,VALID,117,VALID,0.680469,
2010-06-19, 00:56:05,VALID,1000.97,VALID,0,VALID,90.9756,VALID,0,VALID,24.8136,VALID,129,VALID,0.589844,
2010-06-19, 00:57:05,VALID,1000.94,VALID,0,VALID,90.6933,VALID,0,VALID,24.8527,VALID,129,VALID,0.734375,
2010-06-19, 00:58:05,VALID,1000.95,VALID,0,VALID,90.6551,VALID,0,VALID,24.8722,VALID,129,VALID,0.805469,
2010-06-19, 00:59:05,VALID,1000.94,VALID,0,VALID,90.7391,VALID,0,VALID,24.9112,VALID,129,VALID,0.960547,
2010-06-19, 01:00:05,VALID,1000.97,VALID,0,VALID,91.0519,VALID,0,VALID,24.9112,VALID,126,VALID,0.918359,
2010-06-19, 01:01:05,VALID,1000.96,VALID,0,VALID,91.0061,VALID,0,VALID,24.9112,VALID,119,VALID,0.778906,
2010-06-19, 01:02:05,VALID,1000.98,VALID,0,VALID,91.2045,VALID,0,VALID,24.8898,VALID,119,VALID,0.700781,
2010-06-19, 01:03:05,VALID,1000.98,VALID,0,VALID,91.1511,VALID,0,VALID,24.8917,VALID,119,VALID,0.570703,
2010-06-19, 01:04:05,VALID,1000.98,VALID,0,VALID,91.09,VALID,0,VALID,24.8703,VALID,119,VALID,0.761328,
2010-06-19, 01:05:05,VALID,1001.01,VALID,0,VALID,91.1282,VALID,0,VALID,24.8722,VALID,119,VALID,0.675391,
2010-06-19, 01:06:05,VALID,1001.04,VALID,0,VALID,91.235,VALID,0,VALID,24.8722,VALID,119,VALID,0.675391,
2010-06-19, 01:07:05,VALID,1001.04,VALID,0,VALID,91.2808,VALID,0,VALID,24.8527,VALID,119,VALID,0.648047,
2010-06-19, 01:08:05,VALID,1001.07,VALID,0,VALID,91.2731,VALID,0,VALID,24.8508,VALID,129,VALID,0.771875,
2010-06-19, 01:09:05,VALID,1001.12,VALID,0,VALID,91.3494,VALID,0,VALID,24.8527,VALID,129,VALID,0.683203,
2010-06-19, 01:10:05,VALID,1001.13,VALID,0,VALID,91.4105,VALID,0,VALID,24.8313,VALID,129,VALID,0.586328,
2010-06-19, 01:11:05,VALID,1001.14,VALID,0,VALID,91.4181,VALID,0,VALID,24.8117,VALID,130,VALID,0.8125,
2010-06-19, 01:12:05,VALID,1001.14,VALID,0,VALID,91.3571,VALID,0,VALID,24.8332,VALID,134,VALID,0.773438,
2010-06-19, 01:13:05,VALID,1001.15,VALID,0,VALID,91.3952,VALID,0,VALID,24.8117,VALID,152,VALID,0.874219,
2010-06-19, 01:14:05,VALID,1001.13,VALID,0,VALID,91.38,VALID,0,VALID,24.8136,VALID,158,VALID,0.847266,
2010-06-19, 01:15:04,VALID,1001.12,VALID,0,VALID,91.3571,VALID,0,VALID,24.7922,VALID,147,VALID,0.916016,
2010-06-19, 01:16:04,VALID,1001.1,VALID,0,VALID,91.2274,VALID,0,VALID,24.7941,VALID,145,VALID,1.00625,
2010-06-19, 01:17:04,VALID,1001.12,VALID,0,VALID,91.1663,VALID,0,VALID,24.7727,VALID,144,VALID,1.08906,
2010-06-19, 01:18:04,VALID,1001.12,VALID,0,VALID,91.1587,VALID,0,VALID,24.7922,VALID,144,VALID,1.12305,
2010-06-19, 01:19:04,VALID,1001.13,VALID,0,VALID,91.09,VALID,0,VALID,24.7941,VALID,151,VALID,1.01875,
2010-06-19, 01:20:04,VALID,1001.11,VALID,0,VALID,90.9985,VALID,0,VALID,24.7727,VALID,152,VALID,0.799219,
2010-06-19, 01:21:04,VALID,1001.08,VALID,0,VALID,90.9298,VALID,0,VALID,24.7746,VALID,154,VALID,0.55,
2010-06-19, 01:22:04,VALID,1001.07,VALID,0,VALID,90.9146,VALID,0,VALID,24.7746,VALID,154,VALID,0.595703,
2010-06-19, 01:23:04,VALID,1001.02,VALID,0,VALID,90.968,VALID,0,VALID,24.7551,VALID,154,VALID,0.435937,
2010-06-19, 01:24:04,VALID,1000.97,VALID,0,VALID,91.0595,VALID,0,VALID,24.7551,VALID,154,VALID,0.496875,
2010-06-19, 01:25:04,VALID,1000.89,VALID,0,VALID,91.029,VALID,0,VALID,24.7551,VALID,206,VALID,0.725,
2010-06-19, 01:26:04,VALID,1000.86,VALID,0,VALID,91.0366,VALID,0,VALID,24.7746,VALID,224,VALID,0.797656,
2010-06-19, 01:27:04,VALID,1000.85,VALID,0,VALID,90.8535,VALID,0,VALID,24.7532,VALID,229,VALID,0.723437,
2010-06-19, 01:28:04,VALID,1000.78,VALID,0,VALID,90.7467,VALID,0,VALID,24.7532,VALID,229,VALID,0.547266,
2010-06-19, 01:29:04,VALID,1000.77,VALID,0,VALID,90.678,VALID,0,VALID,24.7746,VALID,229,VALID,0.49375,
2010-06-19, 01:30:04,VALID,1000.73,VALID,0,VALID,90.7772,VALID,0,VALID,24.7532,VALID,196,VALID,0.565234,
2010-06-19, 01:31:04,VALID,1000.69,VALID,0,VALID,90.5865,VALID,0,VALID,24.7532,VALID,185,VALID,0.780469,
2010-06-19, 01:32:04,VALID,1000.69,VALID,0,VALID,90.1287,VALID,0,VALID,24.7337,VALID,182,VALID,0.525391,
2010-06-19, 01:33:04,VALID,1000.7,VALID,0,VALID,89.9074,VALID,0,VALID,24.7746,VALID,182,VALID,0.628516,
2010-06-19, 01:34:04,VALID,1000.72,VALID,0,VALID,89.7701,VALID,0,VALID,24.7941,VALID,182,VALID,0.451172,
2010-06-19, 01:35:04,VALID,1000.79,VALID,0,VALID,89.6557,VALID,0,VALID,24.7746,VALID,182,VALID,0.128516,
2010-06-19, 01:36:04,VALID,1000.8,VALID,0,VALID,89.8693,VALID,0,VALID,24.7746,VALID,182,VALID,0.114844,
2010-06-19, 01:37:04,VALID,1000.85,VALID,0,VALID,90.2584,VALID,0,VALID,24.7746,VALID,182,VALID,0.376172,
2010-06-19, 01:38:04,VALID,1000.87,VALID,0,VALID,90.4644,VALID,0,VALID,24.7356,VALID,182,VALID,0.4,
2010-06-19, 01:39:04,VALID,1000.86,VALID,0,VALID,90.4568,VALID,0,VALID,24.6965,VALID,182,VALID,0.307422,
2010-06-19, 01:40:04,VALID,1000.86,VALID,0,VALID,90.3194,VALID,0,VALID,24.6556,VALID,182,VALID,0,
2010-06-19, 01:41:04,VALID,1000.84,VALID,0,VALID,90.3042,VALID,0,VALID,24.638,VALID,182,VALID,0.103516,
2010-06-19, 01:42:04,VALID,1000.85,VALID,0,VALID,90.6246,VALID,0,VALID,24.6184,VALID,182,VALID,0.273047,
2010-06-19, 01:43:04,VALID,1000.84,VALID,0,VALID,90.7925,VALID,0,VALID,24.5794,VALID,182,VALID,0.432813,
2010-06-19, 01:44:04,VALID,1000.85,VALID,0,VALID,90.8688,VALID,0,VALID,24.5599,VALID,182,VALID,0.488281,
2010-06-19, 01:45:04,VALID,1000.86,VALID,0,VALID,91.1129,VALID,0,VALID,24.5794,VALID,151,VALID,0.784766,
2010-06-19, 01:46:04,VALID,1000.87,VALID,0,VALID,91.1434,VALID,0,VALID,24.5599,VALID,149,VALID,0.744141,
2010-06-19, 01:47:04,VALID,1000.97,VALID,0,VALID,91.2045,VALID,0,VALID,24.5794,VALID,140,VALID,0.644141,
2010-06-19, 01:48:04,VALID,1000.93,VALID,0,VALID,91.174,VALID,0,VALID,24.5385,VALID,140,VALID,0.525,
2010-06-19, 01:49:04,VALID,1000.98,VALID,0,VALID,91.2274,VALID,0,VALID,24.5599,VALID,140,VALID,0.546875,
2010-06-19, 01:50:04,VALID,1000.99,VALID,0,VALID,91.3037,VALID,0,VALID,24.5385,VALID,140,VALID,0.350391,
2010-06-19, 01:51:04,VALID,1001,VALID,0,VALID,91.2731,VALID,0,VALID,24.5385,VALID,140,VALID,0.333984,
2010-06-19, 01:52:04,VALID,1000.98,VALID,0,VALID,91.2197,VALID,0,VALID,24.5599,VALID,140,VALID,0.496875,
2010-06-19, 01:53:04,VALID,1000.97,VALID,0,VALID,91.1587,VALID,0,VALID,24.519,VALID,140,VALID,0.662891,
2010-06-19, 01:54:04,VALID,1000.95,VALID,0,VALID,91.1968,VALID,0,VALID,24.5599,VALID,140,VALID,0.557031,
2010-06-19, 01:55:04,VALID,1000.93,VALID,0,VALID,91.3037,VALID,0,VALID,24.5385,VALID,140,VALID,0.606641,
2010-06-19, 01:56:04,VALID,1000.92,VALID,0,VALID,91.2884,VALID,0,VALID,24.558,VALID,140,VALID,0.565234,
2010-06-19, 01:57:04,VALID,1000.9,VALID,0,VALID,91.3189,VALID,0,VALID,24.5599,VALID,140,VALID,0.515625,
2010-06-19, 01:58:04,VALID,1000.88,VALID,0,VALID,91.296,VALID,0,VALID,24.5599,VALID,140,VALID,0.432813,
2010-06-19, 01:59:04,VALID,1000.84,VALID,0,VALID,91.3494,VALID,0,VALID,24.5385,VALID,140,VALID,0.357031,
2010-06-19, 02:00:04,VALID,1000.82,VALID,0,VALID,91.3189,VALID,0,VALID,24.5599,VALID,140,VALID,0.391016,
2010-06-19, 02:01:04,VALID,1000.8,VALID,0,VALID,91.296,VALID,0,VALID,24.5599,VALID,140,VALID,0.271094,
2010-06-19, 02:02:04,VALID,1000.8,VALID,0,VALID,91.3037,VALID,0,VALID,24.558,VALID,140,VALID,0.291797,
2010-06-19, 02:03:04,VALID,1000.82,VALID,0,VALID,91.3494,VALID,0,VALID,24.5385,VALID,140,VALID,0.427734,
2010-06-19, 02:04:04,VALID,1000.85,VALID,0,VALID,91.4715,VALID,0,VALID,24.5599,VALID,140,VALID,0.549609,
2010-06-19, 02:05:04,VALID,1000.88,VALID,0,VALID,91.5783,VALID,0,VALID,24.5385,VALID,140,VALID,0.608984,
2010-06-19, 02:06:04,VALID,1000.86,VALID,0,VALID,91.6241,VALID,0,VALID,24.5794,VALID,140,VALID,0.626953,
2010-06-19, 02:07:04,VALID,1000.91,VALID,0,VALID,91.5936,VALID,0,VALID,24.5385,VALID,140,VALID,0.742188,
2010-06-19, 02:08:04,VALID,1000.95,VALID,0,VALID,91.5707,VALID,0,VALID,24.5404,VALID,140,VALID,0.758203,
2010-06-19, 02:09:04,VALID,1000.96,VALID,0,VALID,91.5478,VALID,0,VALID,24.5404,VALID,140,VALID,0.603906,
2010-06-19, 02:10:04,VALID,1000.96,VALID,0,VALID,91.586,VALID,0,VALID,24.519,VALID,140,VALID,0.675,
2010-06-19, 02:11:04,VALID,1000.97,VALID,0,VALID,91.6241,VALID,0,VALID,24.5404,VALID,140,VALID,0.641016,
2010-06-19, 02:12:04,VALID,1000.97,VALID,0,VALID,91.6928,VALID,0,VALID,24.5404,VALID,140,VALID,0.459375,
2010-06-19, 02:13:04,VALID,1000.97,VALID,0,VALID,91.7385,VALID,0,VALID,24.5404,VALID,140,VALID,0.255859,
2010-06-19, 02:14:04,VALID,1000.96,VALID,0,VALID,91.7614,VALID,0,VALID,24.5404,VALID,140,VALID,0.296484,
2010-06-19, 02:15:04,VALID,1000.91,VALID,0,VALID,91.8454,VALID,0,VALID,24.5385,VALID,140,VALID,0.373047,
2010-06-19, 02:16:04,VALID,1000.87,VALID,0,VALID,91.8683,VALID,0,VALID,24.5404,VALID,140,VALID,0.485938,
2010-06-19, 02:17:04,VALID,1000.86,VALID,0,VALID,91.8683,VALID,0,VALID,24.5599,VALID,62,VALID,0.632813,
2010-06-19, 02:18:04,VALID,1000.86,VALID,0,VALID,91.8835,VALID,0,VALID,24.5599,VALID,62,VALID,0.682031,
2010-06-19, 02:19:04,VALID,1000.89,VALID,0,VALID,91.9522,VALID,0,VALID,24.5599,VALID,62,VALID,0.652734,
2010-06-19, 02:20:04,VALID,1000.87,VALID,0,VALID,91.9903,VALID,0,VALID,24.5599,VALID,62,VALID,0.594141,
2010-06-19, 02:21:04,VALID,1000.86,VALID,0,VALID,91.9445,VALID,0,VALID,24.5599,VALID,62,VALID,0.544141,
2010-06-19, 02:22:04,VALID,1000.9,VALID,0,VALID,91.9445,VALID,0,VALID,24.5404,VALID,62,VALID,0.416797,
2010-06-19, 02:23:04,VALID,1000.88,VALID,0,VALID,91.9598,VALID,0,VALID,24.5404,VALID,62,VALID,0.432813,
2010-06-19, 02:24:04,VALID,1000.92,VALID,0,VALID,91.9598,VALID,0,VALID,24.5404,VALID,62,VALID,0.383594,
2010-06-19, 02:25:04,VALID,1000.88,VALID,0,VALID,91.9445,VALID,0,VALID,24.519,VALID,62,VALID,0.503516,
2010-06-19, 02:26:04,VALID,1000.88,VALID,0,VALID,91.9369,VALID,0,VALID,24.5209,VALID,62,VALID,0.662891,
2010-06-19, 02:27:04,VALID,1000.84,VALID,0,VALID,91.7843,VALID,0,VALID,24.4995,VALID,62,VALID,0.748438,
2010-06-19, 02:28:04,VALID,1000.83,VALID,0,VALID,91.6851,VALID,0,VALID,24.5013,VALID,62,VALID,0.626562,
2010-06-19, 02:29:04,VALID,1000.83,VALID,0,VALID,91.6546,VALID,0,VALID,24.5013,VALID,62,VALID,0.68125,
2010-06-19, 02:30:04,VALID,1000.84,VALID,0,VALID,91.5097,VALID,0,VALID,24.4818,VALID,62,VALID,0.765234,
2010-06-19, 02:31:04,VALID,1000.81,VALID,0,VALID,91.4868,VALID,0,VALID,24.48,VALID,62,VALID,0.811719,
2010-06-19, 02:32:04,VALID,1000.79,VALID,0,VALID,91.6394,VALID,0,VALID,24.4604,VALID,62,VALID,0.942187,
2010-06-19, 02:33:04,VALID,1000.8,VALID,0,VALID,91.8454,VALID,0,VALID,24.4604,VALID,62,VALID,0.831641,
2010-06-19, 02:34:04,VALID,1000.8,VALID,0,VALID,91.8835,VALID,0,VALID,24.4623,VALID,62,VALID,0.746094,
2010-06-19, 02:35:04,VALID,1000.79,VALID,0,VALID,92.0285,VALID,0,VALID,24.4428,VALID,62,VALID,0.719531,
2010-06-19, 02:36:04,VALID,1000.82,VALID,0,VALID,92.0971,VALID,0,VALID,24.4428,VALID,62,VALID,0.769531,
2010-06-19, 02:37:04,VALID,1000.83,VALID,0,VALID,92.1429,VALID,0,VALID,24.4037,VALID,43,VALID,0.777734,
2010-06-19, 02:38:04,VALID,1000.81,VALID,0,VALID,92.1582,VALID,0,VALID,24.3842,VALID,42,VALID,0.713672,
2010-06-19, 02:39:04,VALID,1000.84,VALID,0,VALID,92.1811,VALID,0,VALID,24.3647,VALID,35,VALID,0.819922,
2010-06-19, 02:40:04,VALID,1000.83,VALID,0,VALID,92.2726,VALID,0,VALID,24.3452,VALID,35,VALID,0.848828,
2010-06-19, 02:41:04,VALID,1000.79,VALID,0,VALID,92.3489,VALID,0,VALID,24.2866,VALID,35,VALID,0.807422,
2010-06-19, 02:42:04,VALID,1000.77,VALID,0,VALID,92.4634,VALID,0,VALID,24.2653,VALID,35,VALID,0.728516,
2010-06-19, 02:43:04,VALID,1000.71,VALID,0,VALID,92.5626,VALID,0,VALID,24.2458,VALID,35,VALID,0.464844,
2010-06-19, 02:44:04,VALID,1000.7,VALID,0,VALID,92.6694,VALID,0,VALID,24.2458,VALID,35,VALID,0.358984,
2010-06-19, 02:45:04,VALID,1000.71,VALID,0,VALID,92.7533,VALID,0,VALID,24.2476,VALID,35,VALID,0.386328,
2010-06-19, 02:46:04,VALID,1000.67,VALID,0,VALID,92.7533,VALID,0,VALID,24.2067,VALID,35,VALID,0.090625,
2010-06-19, 02:47:04,VALID,1000.7,VALID,0,VALID,92.7075,VALID,0,VALID,24.2086,VALID,35,VALID,0,
2010-06-19, 02:48:04,VALID,1000.71,VALID,0,VALID,92.7609,VALID,0,VALID,24.1891,VALID,35,VALID,0.1625,
2010-06-19, 02:49:04,VALID,1000.7,VALID,0,VALID,92.7685,VALID,0,VALID,24.15,VALID,35,VALID,0.298047,
2010-06-19, 02:50:04,VALID,1000.74,VALID,0,VALID,92.7685,VALID,0,VALID,24.1092,VALID,35,VALID,0.392188,
2010-06-19, 02:51:04,VALID,1000.73,VALID,0,VALID,92.883,VALID,0,VALID,24.1092,VALID,35,VALID,0.469922,
2010-06-19, 02:52:04,VALID,1000.73,VALID,0,VALID,92.9669,VALID,0,VALID,24.1482,VALID,35,VALID,0.526953,
2010-06-19, 02:53:04,VALID,1000.79,VALID,0,VALID,93.0203,VALID,0,VALID,24.1287,VALID,50,VALID,0.633984,
2010-06-19, 02:54:04,VALID,1000.77,VALID,0,VALID,93.0127,VALID,0,VALID,24.1287,VALID,56,VALID,0.626953,
2010-06-19, 02:55:04,VALID,1000.77,VALID,0,VALID,92.9974,VALID,0,VALID,24.1287,VALID,56,VALID,0.520312,
2010-06-19, 02:56:04,VALID,1000.77,VALID,0,VALID,92.9517,VALID,0,VALID,24.1305,VALID,56,VALID,0.535937,
2010-06-19, 02:57:04,VALID,1000.74,VALID,0,VALID,92.9364,VALID,0,VALID,24.111,VALID,56,VALID,0.657812,
2010-06-19, 02:58:04,VALID,1000.72,VALID,0,VALID,92.9364,VALID,0,VALID,24.0701,VALID,42,VALID,0.772656,
2010-06-19, 02:59:04,VALID,1000.73,VALID,0,VALID,92.9745,VALID,0,VALID,24.0701,VALID,38,VALID,0.809766,
2010-06-19, 03:00:04,VALID,1000.76,VALID,0,VALID,93.0432,VALID,0,VALID,24.0915,VALID,38,VALID,0.689453,
2010-06-19, 03:01:04,VALID,1000.75,VALID,0,VALID,93.0585,VALID,0,VALID,24.0915,VALID,38,VALID,0.543359,
2010-06-19, 03:02:04,VALID,1000.74,VALID,0,VALID,93.1271,VALID,0,VALID,24.111,VALID,38,VALID,0.529297,
2010-06-19, 03:03:04,VALID,1000.71,VALID,0,VALID,93.1958,VALID,0,VALID,24.1305,VALID,38,VALID,0.474219,
2010-06-19, 03:04:04,VALID,1000.74,VALID,0,VALID,93.2034,VALID,0,VALID,24.111,VALID,38,VALID,0.386328,
2010-06-19, 03:05:04,VALID,1000.76,VALID,0,VALID,93.2034,VALID,0,VALID,24.111,VALID,38,VALID,0.359375,
2010-06-19, 03:06:04,VALID,1000.75,VALID,0,VALID,93.234,VALID,0,VALID,24.1092,VALID,38,VALID,0.380469,
2010-06-19, 03:07:04,VALID,1000.76,VALID,0,VALID,93.2874,VALID,0,VALID,24.1287,VALID,38,VALID,0.344141,
2010-06-19, 03:08:04,VALID,1000.75,VALID,0,VALID,93.3026,VALID,0,VALID,24.15,VALID,38,VALID,0.282422,
2010-06-19, 03:09:04,VALID,1000.74,VALID,0,VALID,93.3103,VALID,0,VALID,24.1696,VALID,38,VALID,0.235938,
2010-06-19, 03:10:04,VALID,1000.7,VALID,0,VALID,93.3179,VALID,0,VALID,24.1677,VALID,38,VALID,0.242578,
2010-06-19, 03:11:04,VALID,1000.72,VALID,0,VALID,93.3484,VALID,0,VALID,24.2086,VALID,38,VALID,0.216406,
2010-06-19, 03:12:04,VALID,1000.7,VALID,0,VALID,93.3637,VALID,0,VALID,24.2067,VALID,38,VALID,0.180859,
2010-06-19, 03:13:04,VALID,1000.72,VALID,0,VALID,93.3484,VALID,0,VALID,24.2281,VALID,38,VALID,0.196484,
2010-06-19, 03:14:04,VALID,1000.69,VALID,0,VALID,93.3484,VALID,0,VALID,24.2476,VALID,38,VALID,0.14375,
2010-06-19, 03:15:04,VALID,1000.67,VALID,0,VALID,93.3713,VALID,0,VALID,24.2476,VALID,38,VALID,0.0855469,
2010-06-19, 03:16:04,VALID,1000.68,VALID,0,VALID,93.3408,VALID,0,VALID,24.2476,VALID,38,VALID,0,
2010-06-19, 03:17:04,VALID,1000.68,VALID,0,VALID,93.356,VALID,0,VALID,24.2476,VALID,38,VALID,0,
2010-06-19, 03:18:04,VALID,1000.64,VALID,0,VALID,93.3255,VALID,0,VALID,24.2671,VALID,38,VALID,0,
2010-06-19, 03:19:04,VALID,1000.63,VALID,0,VALID,93.3331,VALID,0,VALID,24.2671,VALID,38,VALID,0.247266,
2010-06-19, 03:20:04,VALID,1000.66,VALID,0,VALID,93.3179,VALID,0,VALID,24.3062,VALID,38,VALID,0.310156,
2010-06-19, 03:21:04,VALID,1000.58,VALID,0,VALID,93.3255,VALID,0,VALID,24.3257,VALID,38,VALID,0.476563,
2010-06-19, 03:22:04,VALID,1000.58,VALID,0,VALID,93.3179,VALID,0,VALID,24.3452,VALID,19,VALID,0.460156,
2010-06-19, 03:23:04,VALID,1000.55,VALID,0,VALID,93.295,VALID,0,VALID,24.3842,VALID,19,VALID,0.510156,
2010-06-19, 03:24:04,VALID,1000.48,VALID,0,VALID,93.2568,VALID,0,VALID,24.3842,VALID,19,VALID,0.558594,
2010-06-19, 03:25:04,VALID,1000.5,VALID,0,VALID,93.2492,VALID,0,VALID,24.3842,VALID,19,VALID,0.616406,
2010-06-19, 03:26:04,VALID,1000.5,VALID,0,VALID,93.2111,VALID,0,VALID,24.4037,VALID,360,VALID,0.668359,
2010-06-19, 03:27:04,VALID,1000.47,VALID,0,VALID,93.1805,VALID,0,VALID,24.4037,VALID,359,VALID,0.628516,
2010-06-19, 03:28:04,VALID,1000.46,VALID,0,VALID,93.1653,VALID,0,VALID,24.3842,VALID,359,VALID,0.58125,
2010-06-19, 03:29:04,VALID,1000.45,VALID,0,VALID,93.1119,VALID,0,VALID,24.3842,VALID,360,VALID,0.583594,
2010-06-19, 03:30:04,VALID,1000.44,VALID,0,VALID,93.0737,VALID,0,VALID,24.3433,VALID,359,VALID,0.608984,
2010-06-19, 03:31:04,VALID,1000.43,VALID,0,VALID,93.0508,VALID,0,VALID,24.3452,VALID,359,VALID,0.630859,
2010-06-19, 03:32:04,VALID,1000.46,VALID,0,VALID,93.0203,VALID,0,VALID,24.3043,VALID,359,VALID,0.749219,
2010-06-19, 03:33:04,VALID,1000.43,VALID,0,VALID,93.0051,VALID,0,VALID,24.2866,VALID,351,VALID,0.764453,
2010-06-19, 03:34:04,VALID,1000.42,VALID,0,VALID,93.0127,VALID,0,VALID,24.2653,VALID,351,VALID,0.678125,
2010-06-19, 03:35:04,VALID,1000.4,VALID,0,VALID,93.0432,VALID,0,VALID,24.2866,VALID,351,VALID,0.441797,
2010-06-19, 03:36:04,VALID,1000.41,VALID,0,VALID,93.0127,VALID,0,VALID,24.2671,VALID,351,VALID,0.386328,
2010-06-19, 03:37:04,VALID,1000.35,VALID,0,VALID,93.0356,VALID,0,VALID,24.2671,VALID,351,VALID,0.497266,
2010-06-19, 03:38:04,VALID,1000.35,VALID,0,VALID,93.0432,VALID,0,VALID,24.2458,VALID,351,VALID,0.574219,
2010-06-19, 03:39:04,VALID,1000.35,VALID,0,VALID,93.0966,VALID,0,VALID,24.2476,VALID,351,VALID,0.498437,
2010-06-19, 03:40:04,VALID,1000.3,VALID,0,VALID,93.1119,VALID,0,VALID,24.2476,VALID,351,VALID,0.385156,
2010-06-19, 03:41:04,VALID,1000.31,VALID,0,VALID,93.1271,VALID,0,VALID,24.2476,VALID,351,VALID,0.232422,
2010-06-19, 03:42:04,VALID,1000.29,VALID,0,VALID,93.15,VALID,0,VALID,24.2281,VALID,351,VALID,0.289453,
2010-06-19, 03:43:04,VALID,1000.23,VALID,0,VALID,93.1348,VALID,0,VALID,24.2281,VALID,351,VALID,0,
2010-06-19, 03:44:04,VALID,1000.24,VALID,0,VALID,93.1424,VALID,0,VALID,24.2086,VALID,351,VALID,0,
2010-06-19, 03:45:04,VALID,1000.22,VALID,0,VALID,93.1348,VALID,0,VALID,24.1891,VALID,351,VALID,0,
2010-06-19, 03:46:04,VALID,1000.26,VALID,0,VALID,93.1424,VALID,0,VALID,24.1891,VALID,351,VALID,0,